TimeMDT,TemperatureF,Dew PointF,Humidity,Sea Level PressureIn,VisibilityMPH,Wind Direction,Wind SpeedMPH,Gust SpeedMPH,PrecipitationIn,Events,Conditions,WindDirDegrees,DateUTC
12:53 AM,50.0,30.0,46,29.77,10.0,SSE,3.5,-,N/A,,Clear,150,2013-04-05 06:53:00
1:53 AM,55.0,28.0,35,29.75,10.0,WNW,3.5,-,N/A,,Clear,300,2013-04-05 07:53:00
2:53 AM,53.1,28.0,38,29.73,10.0,WNW,4.6,-,N/A,,Clear,300,2013-04-05 08:53:00
3:53 AM,54.0,28.0,37,29.72,10.0,Calm,Calm,-,N/A,,Scattered Clouds,0,2013-04-05 09:53:00
4:53 AM,51.1,28.0,41,29.72,10.0,WNW,3.5,-,N/A,,Clear,300,2013-04-05 10:53:00
5:53 AM,50.0,27.0,41,29.71,10.0,West,3.5,-,N/A,,Clear,270,2013-04-05 11:53:00
6:53 AM,48.9,28.9,46,29.72,10.0,SE,4.6,-,N/A,,Clear,130,2013-04-05 12:53:00
7:53 AM,52.0,30.0,43,29.73,10.0,SW,9.2,-,N/A,,Clear,220,2013-04-05 13:53:00
8:53 AM,57.9,28.9,33,29.70,10.0,SSW,8.1,-,N/A,,Clear,200,2013-04-05 14:53:00
9:53 AM,63.0,27.0,26,29.69,10.0,West,12.7,-,N/A,,Clear,260,2013-04-05 15:53:00
10:53 AM,64.9,25.0,22,29.65,10.0,West,11.5,21.9,N/A,,Partly Cloudy,260,2013-04-05 16:53:00
11:53 AM,66.9,24.1,20,29.63,10.0,West,23.0,31.1,N/A,,Clear,280,2013-04-05 17:53:00
12:53 PM,66.0,26.1,22,29.61,10.0,West,23.0,29.9,N/A,,Partly Cloudy,260,2013-04-05 18:53:00
1:53 PM,68.0,27.0,21,29.57,10.0,WSW,17.3,24.2,N/A,,Scattered Clouds,240,2013-04-05 19:53:00
2:53 PM,66.9,27.0,22,29.55,10.0,WSW,18.4,29.9,N/A,,Partly Cloudy,250,2013-04-05 20:53:00
3:53 PM,66.9,30.9,26,29.52,10.0,West,23.0,29.9,N/A,,Mostly Cloudy,270,2013-04-05 21:53:00
4:53 PM,66.9,28.0,23,29.54,10.0,WSW,21.9,36.8,N/A,,Overcast,250,2013-04-05 22:53:00
5:53 PM,64.0,25.0,23,29.56,10.0,West,20.7,31.1,N/A,,Mostly Cloudy,270,2013-04-05 23:53:00
6:53 PM,62.1,26.1,25,29.59,10.0,West,27.6,41.4,N/A,,Mostly Cloudy,270,2013-04-06 00:53:00
7:53 PM,57.0,23.0,27,29.63,10.0,West,23.0,31.1,N/A,,Scattered Clouds,280,2013-04-06 01:53:00
8:53 PM,45.0,37.9,76,29.71,10.0,North,31.1,40.3,N/A,,Scattered Clouds,350,2013-04-06 02:53:00
9:53 PM,41.0,35.1,79,29.79,10.0,WNW,8.1,18.4,0.00,Rain,Light Rain,300,2013-04-06 03:53:00
10:53 PM,39.0,34.0,82,29.78,10.0,NW,6.9,-,0.00,,Scattered Clouds,310,2013-04-06 04:53:00
11:53 PM,39.9,34.0,79,29.78,10.0,WNW,4.6,-,N/A,,Overcast,290,2013-04-06 05:53:00